Flag for Barbados Weather past 2 weeks in Bridgetown, Barbados

Now
81 °F

Passing clouds.


Feels Like: 87 °F
Forecast: 82 / 87 °F
Wind: 13 mph from East

Location: Grantley Adams

Current Time: Sep 24, 2014 at 12:40:33 AM

Latest Report: Sep 24, 2014 at 12:00 AM


Visibility: N/A

Pressure: 29.92 "Hg

Humidity: 89%

Dew point: 77 °F

Location of BridgetownLocation

Historic Weather in Bridgetown — Graph

°F

Bridgetown temperature yesterday

Maximum temperature yesterday: 86 °F (at 10:00 AM)
Minimum temperature yesterday: 81 °F (at 12:00 AM)
Average temperature yesterday: 82 °F

Past Weeks' High & Low Weather Summary

 TemperatureHumidityPressure
High88 °F (Sep 9, 12:00 PM)100% (Sep 19, 10:00 AM)30.01 "Hg (Sep 19, 10:00 AM)
Low73 °F (Sep 19, 10:00 AM)59% (Sep 9, 12:00 PM)29.86 "Hg (Sep 10, 4:00 PM)
Average82 °F83%29.92 "Hg
* Reported Sep 8 11:00 PM — Sep 23 11:00 PM, Bridgetown, Weather by CustomWeather, © 2014

Note: Actual official high and low records may vary slightly from our data, if they occured in-between our weather recording intervals... More about our weather records

Advertising

Bridgetown weather history for previous 24 hours

 ConditionsComfort  
Time TempWeatherWind HumidityBarometerVisibility
11:00 PM
Sep 23
81 °FPartly cloudy.13 mph89%29.95 "HgN/A
10:00 PM81 °FPassing clouds.13 mph89%29.95 "HgN/A
9:00 PM81 °FPartly cloudy.12 mph89%29.95 "HgN/A
8:00 PM81 °FPartly cloudy.9 mph84%29.92 "HgN/A
7:00 PM81 °FPassing clouds.9 mph89%29.89 "HgN/A
6:00 PM81 °FPassing clouds.8 mph89%29.89 "HgN/A
5:00 PM82 °FPartly sunny.9 mph84%29.86 "HgN/A
4:00 PM84 °FPartly sunny.12 mph74%29.86 "HgN/A
3:00 PM84 °FBroken clouds.12 mph79%29.86 "HgN/A
2:00 PM86 °FBroken clouds.13 mph75%29.89 "HgN/A
1:00 PM86 °FBroken clouds.15 mph70%29.92 "HgN/A
12:00 PM86 °FBroken clouds.14 mph75%29.95 "HgN/A
11:00 AM86 °FBroken clouds.13 mph79%29.95 "HgN/A
10:00 AM86 °FBroken clouds.12 mph75%29.98 "HgN/A
9:00 AM82 °FScattered showers. Cloudy.12 mph84%29.95 "HgN/A
8:00 AM82 °FScattered showers. Cloudy.12 mph84%29.89 "HgN/A
7:00 AM82 °FPartly sunny.15 mph84%29.92 "HgN/A
6:00 AM81 °FScattered clouds.12 mph84%29.89 "HgN/A
5:00 AM81 °FPassing clouds.15 mph84%29.89 "HgN/A
4:00 AM81 °FPartly cloudy.14 mph84%29.89 "HgN/A
3:00 AM81 °FPassing clouds.13 mph84%29.86 "HgN/A
2:00 AM81 °FPassing clouds.16 mph84%29.86 "HgN/A
1:00 AM81 °FPartly cloudy.14 mph89%29.89 "HgN/A
12:00 AM81 °FPartly cloudy.15 mph84%29.92 "HgN/A
Weather by CustomWeather, © 2014

See weather overviewHow to use our weather pages